Moses Lake, WA
on Saturday, November 24, 2012

Saturday
Previous Day Next Day
Daily Summary
 ActualAverageRecord
Temperature
Mean Temperature °F 34°F  
Max Temperature 43°F 41°F 57°F (2004)
Min Temperature 27°F 27°F -19°F (2010)
Degree Days
Heating Degree Days 30 31  
Month to date heating degree days 552 631  
Since 1 July heating degree days 1077 1268  
Cooling Degree Days 0 0  
Month to date cooling degree days 0 0  
Year to date cooling degree days 719 615  
Moisture
Dew Point 32°F   
Average Humidity 88    
Maximum Humidity 100    
Minimum Humidity 76    
Precipitation
Precipitation 0.00 in 0.04 in 0.72 in (1983)
Month to date precipitation 1.05 0.93  
Year to date precipitation 7.65 7.40  
Wind
Wind Speed 3 mph   
Max Wind Speed 10 mph   
Max Gust Speed 13 mph   
Visibility 3 miles   
Events Fog   

Key: T is trace of precipitation, MM is missing value
Source: NWS Daily Summary
Time(PST)TemperatureDew PointHumidity Pressure Visibility Wind DirectionWind SpeedGust SpeedPrecipitationEvents Conditions
12:52 AM 39.0°F 36.0°F 89% 30.07 in 5.0 miles South 6.9 mph - N/A   Mostly Cloudy
1:52 AM 37.0°F 35.1°F 93% 30.09 in 5.0 miles North 5.8 mph - N/A   Clear
2:13 AM 37.4°F 35.6°F 93% 30.06 in 4.0 miles North 4.6 mph - N/A   Partly Cloudy
2:52 AM 37.0°F 35.1°F 93% 30.10 in 4.0 miles NNW 6.9 mph - N/A   Partly Cloudy
3:52 AM 37.0°F 35.1°F 93% 30.11 in 3.0 miles North 4.6 mph - N/A   Clear
4:05 AM 37.4°F 35.6°F 93% 30.09 in 2.5 miles North 6.9 mph - N/A   Clear
4:15 AM 37.4°F 35.6°F 93% 30.09 in 3.0 miles North 6.9 mph - N/A   Partly Cloudy
4:44 AM 35.6°F 33.8°F 93% 30.10 in 2.5 miles North 5.8 mph - N/A   Mostly Cloudy
4:52 AM 37.0°F 34.0°F 89% 30.13 in 2.0 miles North 5.8 mph - N/A   Mostly Cloudy
4:59 AM 37.4°F 35.6°F 93% 30.10 in 0.8 miles North 6.9 mph - N/A   Mostly Cloudy
5:52 AM 37.0°F 35.1°F 93% 30.15 in 0.5 miles North 9.2 mph - N/A Fog Fog
6:22 AM 37.4°F 35.6°F 93% 30.13 in 0.2 miles NNE 6.9 mph - N/A Fog Fog
6:52 AM 36.0°F 35.1°F 97% 30.16 in 0.2 miles NE 5.8 mph - N/A Fog Fog
7:23 AM 35.6°F 33.8°F 93% 30.15 in 0.2 miles NE 5.8 mph - N/A Fog Fog
7:52 AM 36.0°F 35.1°F 97% 30.19 in 0.2 miles ENE 5.8 mph - N/A Fog Fog
8:37 AM 33.8°F 32.0°F 93% 30.18 in 0.2 miles West 3.5 mph - N/A Fog Fog
8:48 AM 35.6°F 33.8°F 93% 30.19 in 1.0 miles Calm Calm - N/A   Mist
8:52 AM 35.1°F 33.1°F 92% 30.22 in 3.0 miles West 3.5 mph - N/A   Mostly Cloudy
9:52 AM 37.9°F 36.0°F 93% 30.23 in 9.0 miles Calm Calm - N/A   Clear
10:52 AM 39.9°F 35.1°F 83% 30.21 in 10.0 miles Calm Calm - N/A   Clear
11:52 AM 41.0°F 36.0°F 82% 30.20 in 10.0 miles Calm Calm - N/A   Clear
12:52 PM 42.1°F 36.0°F 79% 30.19 in 10.0 miles South 3.5 mph - N/A   Partly Cloudy
1:52 PM 42.1°F 36.0°F 79% 30.18 in 10.0 miles SSW 3.5 mph - N/A   Clear
2:52 PM 42.1°F 36.0°F 79% 30.18 in 10.0 miles Calm Calm - N/A   Clear
3:52 PM 41.0°F 36.0°F 82% 30.18 in 10.0 miles SW 3.5 mph - N/A   Clear
4:52 PM 39.0°F 36.0°F 89% 30.18 in 9.0 miles WSW 3.5 mph - N/A   Mostly Cloudy
5:52 PM 34.0°F 32.0°F 92% 30.18 in 7.0 miles Calm Calm - N/A   Clear
6:52 PM 35.1°F 32.0°F 89% 30.18 in 4.0 miles West 4.6 mph - N/A   Clear
7:23 PM 33.8°F 30.2°F 87% 30.14 in 2.5 miles West 6.9 mph - N/A   Partly Cloudy
7:38 PM 33.8°F 32.0°F 93% 30.14 in 5.0 miles Calm Calm - N/A   Partly Cloudy
7:52 PM 33.1°F 30.9°F 92% 30.17 in 4.0 miles NNE 3.5 mph - N/A   Clear
8:01 PM 30.2°F 28.4°F 93% 30.14 in 2.5 miles NE 3.5 mph - N/A   Partly Cloudy
8:04 PM 30.2°F 28.4°F 93% 30.14 in 1.0 miles Calm Calm - N/A   Mist
8:11 PM 30.2°F 28.4°F 93% 30.14 in 0.5 miles Calm Calm - N/A Fog Light Freezing Fog
8:52 PM 30.0°F 28.0°F 92% 30.18 in 0.5 miles Calm Calm - N/A Fog Light Freezing Fog
9:08 PM 30.2°F 28.4°F 93% 30.14 in 0.5 miles Calm Calm - N/A Fog Light Freezing Fog
9:15 PM 28.4°F 26.6°F 93% 30.14 in 0.2 miles Calm Calm - N/A Fog Light Freezing Fog
9:52 PM 28.0°F 26.1°F 92% 30.18 in 0.2 miles Calm Calm - N/A Fog Light Freezing Fog
10:26 PM 28.4°F 24.8°F 86% 30.14 in 0.5 miles Calm Calm - N/A Fog Light Freezing Fog
10:42 PM 28.4°F 24.8°F 86% 30.15 in 0.2 miles Calm Calm - N/A Fog Light Freezing Fog
10:52 PM 27.0°F 25.0°F 92% 30.19 in 0.2 miles NNE 3.5 mph - N/A Fog Light Freezing Fog
11:02 PM 28.4°F 24.8°F 86% 30.15 in 0.8 miles North 3.5 mph - N/A   Mist
11:19 PM 26.6°F 24.8°F 93% 30.15 in 0.2 miles Calm Calm - N/A Fog Light Freezing Fog
11:34 PM 26.6°F 24.8°F 93% 30.16 in 0.5 miles Calm Calm - N/A Fog Light Freezing Fog
11:44 PM 26.6°F 26.6°F 100% 30.16 in 0.5 miles Calm Calm - N/A Fog Light Freezing Fog
11:52 PM 27.0°F 26.1°F 96% 30.19 in 0.5 miles Calm Calm - N/A Fog Light Freezing Fog
Moon Phase
Nov. 24 Nov. 28 Dec. 06 Dec. 13 Dec. 20
Sunrise:07:14 AM (PST) Moon Rise:02:10 PM (PST)11/24
Sunset:04:13 PM (PST) Moon Set:03:25 AM (PST)11/24

Copyright © 2014 The Weather Underground, Inc.